EW1556 Weather Reports


Display with metric or nautical units.
time (UTC)temp
F
wind
direction
speed
MPH
gust
MPH
rain 1hr
in
rain 24hr
in
rain mn
in
humidity
%
barometer
mb
20260507130040 52 288 10.0 16.0 0.00 0.00 0.00 71 1015.3
20260507124539 52 290 10.0 15.0 0.00 0.00 0.00 72 1015.2
20260507123032 53 295 10.0 17.0 0.00 0.00 0.00 72 1015.1
20260507121531 53 262 11.0 19.0 0.00 0.00 0.00 71 1015.0
20260507120029 53 278 14.0 20.0 0.00 0.00 0.00 71 1015.0
20260507114546 54 267 14.0 22.0 0.00 0.00 0.00 70 1014.8
20260507113050 53 262 14.0 21.0 0.00 0.00 0.00 70 1014.7
20260507111535 54 264 14.0 21.0 0.00 0.00 0.00 69 1014.7
20260507110023 54 264 15.0 25.0 0.00 0.00 0.00 69 1014.6
20260507104520 54 257 18.0 26.0 0.00 0.00 0.00 69 1014.5
20260507103119 55 263 19.0 30.0 0.00 0.00 0.00 68 1014.5
20260507101519 55 281 17.0 26.0 0.00 0.00 0.00 69 1014.5
20260507100015 55 257 20.0 29.0 0.00 0.00 0.00 69 1014.5
20260507094516 55 251 19.0 29.0 0.00 0.00 0.00 68 1014.8
20260507093011 55 240 14.0 24.0 0.00 0.00 0.00 69 1014.9
20260507091509 55 260 16.0 28.0 0.00 0.00 0.00 68 1014.9
20260507090006 56 265 18.0 26.0 0.00 0.00 0.00 66 1014.7
20260507084506 56 223 13.0 25.0 0.00 0.00 0.00 66 1015.0
20260507083100 56 251 14.0 22.0 0.00 0.00 0.00 65 1015.1
20260507081601 57 228 13.0 23.0 0.00 0.00 0.00 65 1015.0
20260507080055 57 217 12.0 21.0 0.00 0.00 0.00 65 1014.9
20260507074559 57 278 12.0 19.0 0.00 0.00 0.00 65 1014.9
20260507073054 58 259 14.0 21.0 0.00 0.00 0.00 64 1015.0
20260507071549 58 259 12.0 22.0 0.00 0.00 0.00 64 1014.9
20260507070047 58 269 15.0 22.0 0.00 0.00 0.00 63 1014.9
20260507064548 58 249 15.0 25.0 0.00 0.00 0.00 64 1014.8
20260507063045 58 247 18.0 27.0 0.00 0.00 0.00 64 1014.7
20260507061544 58 285 16.0 31.0 0.00 0.00 0.00 65 1014.7
20260507060043 59 285 15.0 25.0 0.00 0.00 0.00 64 1014.9
20260507054542 59 255 18.0 26.0 0.00 0.00 0.00 64 1014.8
20260507053042 59 269 16.0 25.0 0.00 0.00 0.00 64 1015.0
20260507051542 59 248 16.0 26.0 0.00 0.00 0.00 63 1015.1
20260507050042 60 265 18.0 27.0 0.00 0.00 0.00 62 1015.2
20260507044546 60 275 17.0 26.0 0.00 0.00 0.00 61 1015.2
20260507043054 61 263 16.0 26.0 0.00 0.00 0.00 59 1015.1
20260507041537 61 269 17.0 27.0 0.00 0.00 0.00 57 1015.0
20260507040035 62 290 19.0 25.0 0.00 0.00 0.00 56 1014.9
20260507034536 63 265 19.0 30.0 0.00 0.00 0.00 54 1014.7
20260507033035 63 255 19.0 32.0 0.00 0.00 0.00 52 1014.3
20260507031534 65 270 18.0 29.0 0.00 0.00 0.00 49 1014.1
20260507030033 66 259 20.0 28.0 0.00 0.00 0.00 48 1014.0
20260507024532 67 293 15.0 25.0 0.00 0.00 0.00 45 1014.2
20260507023035 68 271 18.0 24.0 0.00 0.00 0.00 42 1014.1
20260507021530 69 295 16.0 23.0 0.00 0.00 0.00 40 1013.9
20260507020045 69 301 17.0 25.0 0.00 0.00 0.00 37 1013.8
20260507014533 70 293 11.0 22.0 0.00 0.00 0.00 37 1013.8
20260507013029 70 294 14.0 24.0 0.00 0.00 0.00 35 1013.8
20260507011541 71 303 15.0 25.0 0.00 0.00 0.00 35 1013.7
20260507010034 71 282 9.0 15.0 0.00 0.00 0.00 36 1013.9
20260507004528 72 294 13.0 22.0 0.00 0.00 0.00 33 1013.7
20260507003028 73 294 16.0 26.0 0.00 0.00 0.00 32 1013.3
20260507001600 75 295 11.0 21.0 0.00 0.00 0.00 32 1013.1
20260507000031 76 297 15.0 23.0 0.00 0.00 0.00 30 1013.2
20260506234525 77 300 13.0 22.0 0.00 0.00 0.00 30 1013.3
20260506233026 77 272 11.0 22.0 0.00 0.00 0.00 30 1013.2
20260506231525 77 293 16.0 23.0 0.00 0.00 0.00 28 1013.1
20260506230030 77 290 16.0 27.0 0.00 0.00 0.00 29 1013.3
20260506224522 76 302 17.0 23.0 0.00 0.00 0.00 31 1013.4
20260506223029 77 291 17.0 26.0 0.00 0.00 0.00 30 1013.3
20260506221521 78 294 16.0 23.0 0.00 0.00 0.00 30 1013.5
20260506220019 78 291 13.0 23.0 0.00 0.00 0.00 31 1013.5
20260506214518 78 273 14.0 24.0 0.00 0.00 0.00 30 1013.5
20260506213018 78 297 14.0 20.0 0.00 0.00 0.00 30 1013.5
20260506211520 77 275 17.0 22.0 0.00 0.00 0.00 31 1013.6
20260506210029 78 281 15.0 22.0 0.00 0.00 0.00 35 1013.6
20260506204513 78 289 15.0 23.0 0.00 0.00 0.00 34 1013.5
20260506203012 78 284 10.0 18.0 0.00 0.00 0.00 35 1013.5
20260506201516 79 297 13.0 18.0 0.00 0.00 0.00 33 1013.5
20260506200009 78 267 10.0 21.0 0.00 0.00 0.00 34 1013.4
20260506194508 78 293 9.0 25.0 0.00 0.00 0.00 39 1013.5
20260506193009 78 289 9.0 19.0 0.00 0.00 0.00 40 1013.5
20260506191510 77 290 13.0 19.0 0.00 0.00 0.00 39 1013.7
20260506190003 77 278 11.0 16.0 0.00 0.00 0.00 37 1013.7
20260506184600 76 260 8.0 14.0 0.00 0.00 0.00 38 1013.8
20260506183105 75 281 11.0 16.0 0.00 0.00 0.00 41 1014.0
20260506181557 74 245 9.0 13.0 0.00 0.00 0.00 44 1014.1
20260506180052 72 270 8.0 12.0 0.00 0.00 0.00 47 1014.2
20260506174546 71 284 7.0 14.0 0.00 0.00 0.00 50 1014.4
20260506173047 70 262 9.0 15.0 0.00 0.00 0.00 52 1014.4
20260506171540 68 272 12.0 16.0 0.00 0.00 0.00 55 1014.6
20260506170044 67 288 2.0 9.0 0.00 0.00 0.00 56 1014.8
20260506164554 68 352 6.0 15.0 0.00 0.00 0.00 55 1014.7
20260506163037 67 276 10.0 15.0 0.00 0.00 0.00 55 1014.6
20260506161531 65 267 8.0 16.0 0.00 0.00 0.00 57 1014.5
20260506160033 64 279 9.0 16.0 0.00 0.00 0.00 58 1014.4
20260506154524 62 271 12.0 17.0 0.00 0.00 0.00 61 1014.6
20260506153021 61 270 11.0 19.0 0.00 0.00 0.00 63 1014.7
20260506151519 60 269 11.0 19.0 0.00 0.00 0.00 64 1014.8
20260506150018 60 294 12.0 18.0 0.00 0.00 0.00 65 1014.9
20260506144523 59 290 8.0 16.0 0.00 0.00 0.00 66 1014.8
20260506143014 58 283 12.0 17.0 0.00 0.00 0.00 67 1014.5
20260506141525 57 276 9.0 14.0 0.00 0.00 0.00 70 1014.6
20260506140012 56 268 9.0 14.0 0.00 0.00 0.00 72 1014.4
20260506134509 0 0.0 0.0 0.00 0.00 0.00 1014.2
20260506133005 0 0.0 0.0 0.00 0.00 0.00 1014.1
20260506131501 0 0.0 0.0 0.00 0.00 0.00 1013.8